AW623 Weather Reports


time (UTC)temp
C
wind
direction
speed
KPH
gust
KPH
rain 1hr
cm
rain 24hr
cm
rain mn
cm
humidity
%
barometer
mb
20260510213122 21 41 19.3 27.4 0.00 0.00 0.00 31 987.9
20260510212144 21 19 17.7 22.5 0.00 0.00 0.00 34 987.8
20260510211122 21 39 19.3 25.7 0.00 0.00 0.00 35 987.8
20260510210122 20 42 16.1 20.9 0.00 0.00 0.00 35 988.1
20260510205122 20 38 16.1 24.1 0.00 0.00 0.00 35 988.2
20260510204122 20 35 19.3 24.1 0.00 0.00 0.00 34 988.2
20260510203123 20 47 16.1 22.5 0.00 0.00 0.00 36 988.2
20260510202122 20 63 16.1 22.5 0.00 0.00 0.00 34 988.2
20260510201122 20 47 19.3 27.4 0.00 0.00 0.00 34 988.2
20260510200122 20 54 17.7 24.1 0.00 0.00 0.00 33 988.0
20260510195122 20 47 20.9 27.4 0.00 0.00 0.00 33 988.1
20260510194122 20 50 17.7 27.4 0.00 0.00 0.00 35 988.2
20260510193122 20 54 17.7 24.1 0.00 0.00 0.00 35 988.2
20260510192123 20 61 17.7 24.1 0.00 0.00 0.00 35 988.2
20260510191122 20 52 14.5 20.9 0.00 0.00 0.00 35 988.2
20260510190124 20 61 17.7 24.1 0.00 0.00 0.00 35 988.4
20260510185145 20 43 17.7 27.4 0.00 0.00 0.00 34 988.2
20260510184124 20 41 17.7 25.7 0.00 0.00 0.00 35 988.1
20260510183123 20 58 16.1 24.1 0.00 0.00 0.00 36 988.0
20260510182143 19 54 17.7 22.5 0.00 0.00 0.00 35 988.1
20260510181122 19 51 19.3 25.7 0.00 0.00 0.00 35 988.1
20260510180144 18 50 22.5 29.0 0.00 0.00 0.00 34 988.2
20260510175122 18 50 20.9 27.4 0.00 0.00 0.00 34 988.1
20260510174122 18 49 24.1 30.6 0.00 0.00 0.00 34 988.2
20260510173123 18 43 22.5 29.0 0.00 0.00 0.00 33 988.2
20260510172122 19 44 24.1 32.2 0.00 0.00 0.00 33 988.0
20260510171122 20 45 24.1 33.8 0.00 0.00 0.00 34 988.0
20260510170123 20 59 24.1 32.2 0.00 0.00 0.00 33 988.1
20260510165123 20 58 25.7 32.2 0.00 0.00 0.00 32 988.0
20260510164122 20 51 24.1 37.0 0.00 0.00 0.00 30 987.9
20260510163123 20 62 22.5 30.6 0.00 0.00 0.00 31 987.9
20260510162122 20 49 24.1 35.4 0.00 0.00 0.00 32 987.8
20260510161122 18 59 22.5 29.0 0.00 0.00 0.00 35 987.8
20260510160122 18 54 20.9 27.4 0.00 0.00 0.00 36 987.9
20260510155122 17 55 22.5 32.2 0.00 0.00 0.00 36 987.6
20260510154122 18 57 19.3 25.7 0.00 0.00 0.00 36 987.4
20260510153122 19 53 17.7 24.1 0.00 0.00 0.00 35 987.2
20260510152123 17 60 19.3 27.4 0.00 0.00 0.00 37 987.2
20260510151122 17 60 19.3 25.7 0.00 0.00 0.00 39 987.2
20260510150122 16 56 24.1 32.2 0.00 0.00 0.00 40 987.0
20260510145122 17 56 29.0 37.0 0.00 0.00 0.00 39 986.7
20260510144122 16 60 25.7 38.6 0.00 0.00 0.00 40 986.8
20260510143122 17 59 19.3 30.6 0.00 0.00 0.00 42 986.9
20260510142122 15 61 20.9 27.4 0.00 0.00 0.00 43 987.2
20260510141122 15 63 17.7 25.7 0.00 0.00 0.00 44 987.2
20260510140143 15 54 19.3 25.7 0.00 0.00 0.00 44 987.5
20260510135122 15 53 17.7 24.1 0.00 0.00 0.00 45 987.4
20260510134122 15 58 19.3 27.4 0.00 0.00 0.00 45 987.1
20260510133122 15 55 20.9 27.4 0.00 0.00 0.00 46 986.7
20260510132122 15 63 20.9 29.0 0.00 0.00 0.00 46 986.4
20260510131122 15 53 20.9 25.7 0.00 0.00 0.00 46 986.4
20260510130122 15 64 20.9 25.7 0.00 0.00 0.00 46 986.0
20260510125123 15 65 22.5 29.0 0.00 0.00 0.00 46 985.7
20260510124123 15 61 24.1 29.0 0.00 0.00 0.00 47 985.4
20260510123122 15 64 22.5 29.0 0.00 0.00 0.00 48 985.1
20260510122122 15 54 24.1 30.6 0.00 0.00 0.00 50 985.0
20260510121122 15 50 22.5 30.6 0.00 0.00 0.00 53 985.0
20260510120122 15 57 20.9 29.0 0.00 0.00 0.00 53 984.0
20260510115122 15 61 22.5 29.0 0.00 0.00 0.00 55 984.0
20260510114123 15 62 22.5 29.0 0.00 0.00 0.00 57 983.7
20260510113122 15 63 20.9 27.4 0.00 0.00 0.00 59 983.4
20260510112144 15 64 22.5 32.2 0.00 0.00 0.00 60 983.2
20260510111122 15 74 20.9 25.7 0.00 0.00 0.00 60 983.2
20260510110122 15 62 20.9 27.4 0.00 0.00 0.00 60 983.2
20260510105122 15 57 20.9 25.7 0.00 0.00 0.00 59 983.2
20260510104123 15 62 20.9 27.4 0.00 0.00 0.00 58 982.9
20260510103122 16 66 19.3 24.1 0.00 0.00 0.00 57 982.7
20260510102143 16 74 16.1 20.9 0.00 0.00 0.00 57 982.7
20260510101122 15 71 11.3 17.7 0.00 0.00 0.00 58 982.7
20260510100125 16 84 12.9 19.3 0.00 0.00 0.00 57 982.2
20260510095122 16 62 17.7 24.1 0.00 0.00 0.00 56 982.6
20260510094123 16 56 17.7 20.9 0.00 0.00 0.00 56 982.2
20260510093122 16 60 17.7 25.7 0.00 0.00 0.00 55 981.9
20260510092122 16 58 19.3 22.5 0.00 0.00 0.00 55 981.8
20260510091122 17 63 17.7 22.5 0.00 0.00 0.00 54 981.8
20260510090122 17 66 17.7 25.7 0.00 0.00 0.00 54 981.7
20260510085123 17 64 16.1 19.3 0.00 0.00 0.00 55 981.7
20260510084123 17 64 17.7 22.5 0.00 0.00 0.00 55 981.7
20260510083122 17 57 14.5 17.7 0.00 0.00 0.00 55 981.4
20260510082143 17 52 14.5 20.9 0.00 0.00 0.00 55 981.2
20260510081122 17 53 16.1 17.7 0.00 0.00 0.00 56 981.2
20260510080122 17 62 12.9 14.5 0.00 0.00 0.00 57 981.0
20260510075122 17 52 9.7 12.9 0.00 0.00 0.00 58 981.0
20260510074122 17 53 9.7 11.3 0.00 0.00 0.00 58 980.6
20260510073123 17 64 9.7 12.9 0.00 0.00 0.00 57 980.5
20260510072122 17 56 9.7 11.3 0.00 0.00 0.00 57 980.5
20260510071123 18 56 8.0 9.7 0.00 0.00 0.00 56 980.5
20260510070122 18 46 8.0 9.7 0.00 0.00 0.00 55 980.6
20260510065122 18 57 8.0 8.0 0.00 0.00 0.00 55 980.6
20260510064123 18 60 6.4 9.7 0.00 0.00 0.00 54 980.4
20260510063122 18 59 8.0 8.0 0.00 0.00 0.00 54 980.2
20260510062122 18 47 6.4 8.0 0.00 0.00 0.00 54 980.2
20260510061122 18 60 6.4 9.7 0.00 0.00 0.00 53 980.2
20260510060144 19 59 8.0 9.7 0.00 0.00 0.00 52 980.0
20260510055122 19 70 6.4 8.0 0.00 0.00 0.00 51 980.0
20260510054122 20 77 4.8 8.0 0.00 0.00 0.00 50 979.9
20260510053122 20 81 3.2 6.4 0.00 0.00 0.00 50 980.0
20260510052122 20 71 6.4 9.7 0.00 0.00 0.00 48 980.0
20260510051122 20 57 9.7 11.3 0.00 0.00 0.00 47 980.0
20260510050122 21 90 8.0 9.7 0.00 0.00 0.00 46 979.8
20260510045144 21 73 8.0 12.9 0.00 0.00 0.00 46 979.9
20260510044123 21 65 8.0 9.7 0.00 0.00 0.00 47 979.7
20260510043122 21 63 6.4 8.0 0.00 0.00 0.00 47 979.7
20260510042122 21 77 6.4 9.7 0.00 0.00 0.00 45 979.8
20260510041143 22 79 6.4 11.3 0.00 0.00 0.00 44 979.8
20260510040122 22 72 6.4 11.3 0.00 0.00 0.00 43 980.1
20260510035122 23 71 6.4 9.7 0.00 0.00 0.00 42 979.8
20260510034144 23 90 8.0 14.5 0.00 0.00 0.00 42 979.7
20260510033123 23 79 8.0 17.7 0.00 0.00 0.00 41 979.6
20260510032122 23 53 11.3 14.5 0.00 0.00 0.00 41 979.6
20260510031143 23 54 9.7 17.7 0.00 0.00 0.00 41 979.6
20260510030143 24 343 9.7 17.7 0.00 0.00 0.00 40 979.1
20260510025122 24 291 8.0 16.1 0.00 0.00 0.00 42 978.8
20260510024122 23 315 8.0 11.3 0.00 0.00 0.00 43 978.5
20260510023122 23 335 8.0 11.3 0.00 0.00 0.00 43 978.0
20260510022123 25 215 4.8 8.0 0.00 0.00 0.00 41 977.6
20260510021143 25 206 8.0 12.9 0.00 0.00 0.00 41 977.6
20260510020122 25 211 8.0 9.7 0.00 0.00 0.00 40 977.2
20260510015122 25 217 8.0 11.3 0.00 0.00 0.00 40 977.0
20260510014122 25 196 8.0 14.5 0.00 0.00 0.00 39 976.7
20260510013122 25 207 8.0 11.3 0.00 0.00 0.00 38 976.5
20260510012143 25 155 8.0 16.1 0.00 0.00 0.00 38 976.2
20260510011123 26 160 11.3 14.5 0.00 0.00 0.00 37 976.2
20260510010122 25 118 6.4 9.7 0.00 0.00 0.00 38 976.0
20260510005123 26 77 6.4 8.0 0.00 0.00 0.00 36 975.6
20260510004122 26 52 4.8 8.0 0.00 0.00 0.00 36 975.4
20260510003122 28 196 3.2 4.8 0.00 0.00 0.00 31 975.5
20260510002124 28 207 4.8 4.8 0.00 0.00 0.00 29 975.4
20260510001122 30 199 4.8 6.4 0.00 0.00 0.00 28 975.4
20260510000122 30 215 4.8 8.0 0.00 0.00 0.00 28 975.5
20260509235122 28 219 4.8 8.0 0.00 0.00 0.00 29 975.5
20260509234122 28 212 8.0 11.3 0.00 0.00 0.00 28 975.5
20260509233143 29 229 6.4 9.7 0.00 0.00 0.00 28 975.4
20260509232122 30 236 8.0 12.9 0.00 0.00 0.00 26 975.2
20260509231123 30 274 9.7 12.9 0.00 0.00 0.00 24 975.2
20260509230125 31 280 9.7 14.5 0.00 0.00 0.00 23 975.2
20260509225143 32 278 11.3 17.7 0.00 0.00 0.00 23 975.2
20260509224143 33 294 11.3 16.1 0.00 0.00 0.00 22 975.2
20260509223122 33 286 9.7 12.9 0.00 0.00 0.00 21 975.2
20260509222122 32 273 12.9 17.7 0.00 0.00 0.00 23 975.2
20260509221122 31 245 11.3 17.7 0.00 0.00 0.00 23 975.2
20260509220122 31 275 9.7 17.7 0.00 0.00 0.00 25 975.2
20260509215122 32 260 11.3 16.1 0.00 0.00 0.00 22 975.2
20260509214122 31 251 12.9 20.9 0.00 0.00 0.00 23 975.2